Weather History for Eagle, CO

Change the Weather History Date:

Tuesday, March 19, 2013

  Actual Average Record
Temperature  
Mean Temperature 37 °F -  
Max Temperature 48 °F 50 °F 68 °F (2004)
Min Temperature 24 °F 21 °F 3 °F (1955)
Degree Days  
Heating Degree Days 28    
Moisture  
Dew Point 9 °F    
Average Humidity 44    
Maximum Humidity 69    
Minimum Humidity 8    
Precipitation  
Precipitation 0.00 in - - ()
Sea Level Pressure  
Sea Level Pressure 30.10 in    
Wind  
Wind Speed 7 mph (SSE)    
Max Wind Speed 17 mph    
Max Gust Speed 24 mph    
Visibility 10 miles    
Events      
Averages and records for this station are not official NWS values.
T = Trace of Precipitation, MM = Missing Value Source: NWS Daily Summary

Daily Weather History Graph

Daily Weather History Graph

Search for Another Location

Airport:

Trip Planner

Search our weather history database for the weather conditions in past years. The results will help you decide how hot, cold, wet, or windy it might be!

Date:

Astronomy

Mar. 19, 2013 Rise Set
Actual Time 7:12 AM MDT 7:18 PM MDT
Civil Twilight 6:45 AM MDT 7:45 PM MDT
Nautical Twilight 6:13 AM MDT 8:17 PM MDT
Astronomical Twilight 5:42 AM MDT 8:49 PM MDT
Moon 12:06 PM MDT (3/19) 2:06 AM MDT (3/19)
Length of Visible Light 13h 00m
Length of Day
12h 06m
Waxing Crescent, 50% of the Moon is Illuminated
Mar 19
Waxing Crescent
Mar 27
Full
Apr 2
Last Quarter
Apr 10
New
Apr 18
First Quarter

Hourly Weather History & Observations

Time (MDT) Temp. Windchill Dew Point Humidity Pressure Visibility Wind Dir Wind Speed Gust Speed Precip Events Conditions
12:15 AM 37.4 °F 30.8 °F 10.4 °F 33% 29.99 in 10.0 mi SW 9.2 mph - N/A   Clear
12:35 AM 35.6 °F 32.8 °F 12.2 °F 38% 29.98 in 10.0 mi West 3.5 mph - N/A   Scattered Clouds
12:55 AM 35.6 °F 31.7 °F 12.2 °F 38% 29.99 in 10.0 mi East 4.6 mph - N/A   Scattered Clouds
1:15 AM 33.8 °F 29.6 °F 15.8 °F 48% 29.99 in 10.0 mi East 4.6 mph - N/A   Scattered Clouds
1:35 AM 32.0 °F 27.5 °F 15.8 °F 51% 29.99 in 10.0 mi ENE 4.6 mph - N/A   Scattered Clouds
1:55 AM 30.2 °F 23.4 °F 17.6 °F 60% 29.99 in 10.0 mi ENE 6.9 mph - N/A   Clear
2:15 AM 32.0 °F 26.4 °F 17.6 °F 55% 30.00 in 10.0 mi East 5.8 mph - N/A   Clear
2:35 AM 30.2 °F 21.3 °F 19.4 °F 64% 30.01 in 10.0 mi East 10.4 mph - N/A   Clear
2:55 AM 30.2 °F 20.2 °F 19.4 °F 64% 30.01 in 10.0 mi ESE 12.7 mph - N/A   Clear
3:15 AM 30.2 °F 20.2 °F 19.4 °F 64% 30.02 in 10.0 mi East 12.7 mph - N/A   Clear
3:55 AM 30.2 °F 23.4 °F 19.4 °F 64% 30.02 in 10.0 mi East 6.9 mph - N/A   Clear
4:15 AM 28.4 °F 19.1 °F 19.4 °F 69% 30.02 in 10.0 mi East 10.4 mph - N/A   Clear
4:55 AM 28.4 °F 21.2 °F 19.4 °F 69% 30.03 in 10.0 mi East 6.9 mph - N/A   Clear
5:15 AM 28.4 °F 23.3 °F 19.4 °F 69% 30.05 in 10.0 mi SSE 4.6 mph - N/A   Clear
5:35 AM 28.4 °F - 19.4 °F 69% 30.06 in 10.0 mi Calm Calm - N/A   Clear
5:55 AM 28.4 °F 23.3 °F 19.4 °F 69% 30.06 in 10.0 mi ENE 4.6 mph - N/A   Clear
6:15 AM 28.4 °F 23.3 °F 19.4 °F 69% 30.06 in 10.0 mi NW 4.6 mph - N/A   Clear
6:35 AM 28.4 °F 23.3 °F 19.4 °F 69% 30.07 in 10.0 mi WSW 4.6 mph - N/A   Clear
6:50 AM 28.4 °F 21.2 °F 19.4 °F 69% 30.07 in 10.0 mi SW 6.9 mph - N/A   Scattered Clouds
7:50 AM 30.2 °F - 17.6 °F 60% 30.11 in 10.0 mi Calm Calm - N/A   Mostly Cloudy
8:50 AM 33.8 °F - 15.8 °F 48% 30.14 in 10.0 mi Calm Calm - N/A   Mostly Cloudy
9:50 AM 37.4 °F 33.8 °F 5.0 °F 26% 30.15 in 10.0 mi WSW 4.6 mph - N/A   Mostly Cloudy
10:50 AM 39.2 °F 34.2 °F -7.6 °F 14% 30.16 in 10.0 mi West 6.9 mph - N/A   Mostly Cloudy
11:50 AM 42.8 °F 38.6 °F -7.6 °F 12% 30.16 in 10.0 mi West 6.9 mph - N/A   Scattered Clouds
12:50 PM 44.6 °F 39.7 °F -9.4 °F 10% 30.14 in 10.0 mi WSW 9.2 mph 17.3 mph N/A   Scattered Clouds
1:50 PM 46.4 °F 39.5 °F -13.0 °F 8% 30.14 in 10.0 mi West 17.3 mph 23.0 mph N/A   Partly Cloudy
2:50 PM 46.4 °F 40.4 °F -11.2 °F 9% 30.12 in 10.0 mi SW 13.8 mph 18.4 mph N/A   Partly Cloudy
3:50 PM 48.2 °F - -9.4 °F 9% 30.12 in 10.0 mi WSW 12.7 mph 24.2 mph N/A   Partly Cloudy
4:50 PM 46.4 °F 39.8 °F -9.4 °F 9% 30.13 in 10.0 mi SW 16.1 mph 19.6 mph N/A   Partly Cloudy
5:50 PM 46.4 °F 40.7 °F -11.2 °F 9% 30.15 in 10.0 mi WSW 12.7 mph - N/A   Partly Cloudy
6:50 PM 44.6 °F 38.8 °F -9.4 °F 10% 30.16 in 10.0 mi West 11.5 mph - N/A   Partly Cloudy
7:50 PM 39.2 °F 35.0 °F -0.4 °F 19% 30.19 in 10.0 mi ESE 5.8 mph - N/A   Partly Cloudy
8:50 PM 33.8 °F 29.6 °F 8.6 °F 35% 30.21 in 10.0 mi East 4.6 mph - N/A   Partly Cloudy
9:50 PM 30.2 °F 24.3 °F 12.2 °F 47% 30.23 in 10.0 mi ENE 5.8 mph - N/A   Partly Cloudy
10:50 PM 28.4 °F - 12.2 °F 51% 30.24 in 10.0 mi Calm Calm - N/A   Partly Cloudy
10:55 PM 28.4 °F - 10.4 °F 47% 30.24 in 10.0 mi Calm Calm - N/A   Clear
11:15 PM 28.4 °F - 10.4 °F 47% 30.25 in 10.0 mi Calm Calm - N/A   Clear
11:35 PM 26.6 °F - 12.2 °F 55% 30.25 in 10.0 mi Calm Calm - N/A   Clear
11:55 PM 24.8 °F - 12.2 °F 59% 30.26 in 10.0 mi Calm Calm - N/A   Clear